CW4114 Weather Reports


time (UTC)temp
C
wind
direction
speed
KPH
gust
KPH
rain 1hr
cm
rain 24hr
cm
rain mn
cm
humidity
%
barometer
mb
20260831231249 24 176 4.8 9.7 0.00 0.05 0.05 88 1009.8
20260831230747 24 152 1.6 8.0 0.00 0.05 0.05 88 1009.7
20260831230511 24 149 3.2 8.0 0.00 0.05 0.05 88 1009.7
20260831225744 24 165 3.2 14.5 0.00 0.05 0.05 87 1009.8
20260831225508 24 162 4.8 14.5 0.00 0.05 0.05 87 1009.8
20260831224743 25 158 4.8 11.3 0.00 0.05 0.05 87 1009.9
20260831224242 24 142 6.4 14.5 0.00 0.05 0.05 88 1009.9
20260831223742 24 182 6.4 14.5 0.00 0.05 0.05 89 1009.9
20260831223246 24 181 3.2 11.3 0.00 0.05 0.05 91 1009.9
20260831223010 23 149 4.8 11.3 0.00 0.05 0.05 92 1009.8
20260831221740 23 106 1.6 4.8 0.00 0.05 0.05 90 1009.8
20260831221241 23 106 1.6 4.8 0.00 0.05 0.05 89 1009.9
20260831220741 23 78 1.6 4.8 0.00 0.05 0.05 88 1009.8
20260831220240 23 65 1.6 3.2 0.00 0.05 0.05 88 1009.9
20260831215739 23 54 0.0 3.2 0.00 0.05 0.05 88 1009.9
20260831215241 23 59 1.6 3.2 0.00 0.05 0.05 89 1010.0
20260831214737 23 93 0.0 3.2 0.00 0.05 0.05 91 1009.9
20260831214501 23 82 0.0 4.8 0.00 0.05 0.05 91 1009.9
20260831213735 22 79 1.6 4.8 0.00 0.05 0.05 90 1009.9
20260831213234 22 76 1.6 4.8 0.00 0.05 0.05 89 1010.1
20260831212736 22 68 1.6 4.8 0.00 0.05 0.05 90 1010.1
20260831212235 22 73 1.6 4.8 0.00 0.05 0.05 90 1010.1
20260831211736 22 71 0.0 1.6 0.00 0.05 0.05 91 1010.0
20260831211233 22 95 0.0 3.2 0.00 0.05 0.05 92 1010.0
20260831210736 22 97 0.0 3.2 0.00 0.05 0.05 93 1010.1
20260831210233 21 103 0.0 4.8 0.00 0.05 0.05 94 1010.2
20260831205733 21 99 1.6 9.7 0.00 0.05 0.05 94 1010.1
20260831205501 21 357 3.2 11.3 0.00 0.05 0.05 94 1010.2
20260831205000 21 90 4.8 17.7 0.00 0.05 0.05 94 1010.2
20260831204234 20 96 11.3 17.7 0.00 0.05 0.05 94 1010.3
20260831203735 20 87 9.7 17.7 0.00 0.05 0.05 94 1010.3
20260831203233 20 103 6.4 17.7 0.00 0.05 0.05 94 1010.4
20260831202732 20 117 8.0 17.7 0.00 0.05 0.05 94 1010.4
20260831202502 20 113 8.0 16.1 0.00 0.05 0.05 93 1010.5
20260831201732 21 75 8.0 17.7 0.00 0.05 0.05 93 1010.7
20260831201233 21 87 8.0 17.7 0.00 0.05 0.05 93 1010.8
20260831200733 21 103 6.4 17.7 0.00 0.05 0.05 93 1010.8
20260831200232 21 107 11.3 17.7 0.00 0.05 0.05 93 1010.8
20260831200006 21 55 6.4 19.3 0.00 0.05 0.05 93 1010.8
20260831195229 21 107 11.3 20.9 0.00 0.05 0.05 92 1010.8
20260831194955 21 114 11.3 20.9 0.00 0.05 0.05 92 1010.8
20260831194229 21 123 12.9 20.9 0.00 0.05 0.05 92 1010.8
20260831193729 21 95 14.5 20.9 0.00 0.05 0.05 92 1010.7
20260831193229 21 93 11.3 20.9 0.00 0.05 0.05 92 1010.8
20260831192729 21 87 12.9 19.3 0.00 0.05 0.05 91 1010.9
20260831192228 21 80 11.3 17.7 0.00 0.05 0.05 91 1010.7
20260831191728 21 86 12.9 17.7 0.00 0.05 0.05 89 1010.8
20260831191228 22 85 9.7 17.7 0.00 0.05 0.05 88 1010.8
20260831190728 22 87 11.3 19.3 0.00 0.05 0.05 88 1010.9
20260831190456 23 116 9.7 19.3 0.00 0.05 0.05 88 1011.0
20260831185728 23 55 8.0 19.3 0.00 0.05 0.05 88 1011.0
20260831185227 23 87 9.7 17.7 0.00 0.05 0.05 87 1011.1
20260831184728 23 51 6.4 16.1 0.00 0.05 0.05 88 1011.2
20260831184227 23 110 8.0 16.1 0.00 0.05 0.05 89 1011.3
20260831183727 22 48 4.8 14.5 0.00 0.05 0.05 90 1011.3
20260831183227 22 102 9.7 16.1 0.00 0.05 0.05 87 1011.5
20260831182954 23 100 3.2 16.1 0.00 0.05 0.05 85 1011.4
20260831182227 25 73 9.7 14.5 0.00 0.05 0.05 77 1011.4
20260831181727 26 68 6.4 14.5 0.00 0.05 0.05 77 1011.4
20260831181226 26 113 4.8 11.3 0.00 0.05 0.05 79 1011.3
20260831180727 26 178 3.2 11.3 0.00 0.05 0.05 79 1011.4
20260831180228 26 190 3.2 11.3 0.00 0.05 0.05 77 1011.3
20260831175726 27 282 1.6 14.5 0.00 0.05 0.05 79 1011.2
20260831175225 26 179 4.8 17.7 0.00 0.05 0.05 79 1011.4
20260831174726 26 202 8.0 17.7 0.00 0.05 0.05 79 1011.6
20260831174226 26 206 6.4 14.5 0.00 0.05 0.05 80 1011.7
20260831173725 26 168 4.8 14.5 0.00 0.05 0.05 80 1011.7
20260831173225 26 149 3.2 14.5 0.00 0.05 0.05 80 1011.9
20260831172728 26 199 3.2 14.5 0.00 0.05 0.05 81 1012.0
20260831172227 26 199 3.2 16.1 0.00 0.05 0.05 82 1012.2
20260831171725 25 195 6.4 16.1 0.00 0.05 0.05 82 1012.2
20260831171227 26 193 8.0 16.1 0.00 0.05 0.05 83 1012.3
20260831170954 25 224 3.2 11.3 0.00 0.05 0.05 84 1012.3
20260831170224 25 278 6.4 11.3 0.00 0.05 0.05 85 1012.3
20260831165722 25 267 6.4 9.7 0.00 0.05 0.05 87 1012.3
20260831165450 25 183 3.2 11.3 0.00 0.05 0.05 88 1012.3
20260831164725 24 234 6.4 11.3 0.00 0.05 0.05 89 1012.4
20260831164451 24 257 3.2 8.0 0.00 0.05 0.05 90 1012.5
20260831163948 23 168 3.2 9.7 0.00 0.05 0.05 92 1012.5
20260831163223 23 210 4.8 9.7 0.00 0.05 0.05 94 1012.5
20260831162724 22 210 1.6 8.0 0.00 0.05 0.05 95 1012.5
20260831162224 22 141 1.6 6.4 0.00 0.05 0.05 96 1012.6
20260831161723 22 169 0.0 8.0 0.00 0.05 0.05 96 1012.7
20260831161450 21 186 4.8 9.7 0.00 0.05 0.05 96 1012.8
20260831160723 21 192 4.8 9.7 0.00 0.05 0.05 96 1012.9
20260831160451 21 204 1.6 8.0 0.00 0.05 0.05 97 1012.9
20260831155951 21 157 1.6 8.0 0.00 0.05 0.05 97 1012.7
20260831155221 21 106 3.2 6.4 0.03 0.05 0.05 97 1012.9
20260831154722 21 154 1.6 6.4 0.03 0.05 0.05 97 1013.1
20260831154222 21 138 3.2 6.4 0.03 0.05 0.05 97 1013.1
20260831153722 20 135 1.6 6.4 0.03 0.05 0.05 97 1013.2
20260831153222 20 134 1.6 4.8 0.03 0.05 0.05 97 1013.3
20260831152221 20 62 1.6 8.0 0.03 0.05 0.05 97 1013.2
20260831151722 20 128 3.2 8.0 0.03 0.05 0.05 97 1013.2
20260831151221 20 123 1.6 8.0 0.03 0.05 0.05 98 1013.2
20260831150715 20 135 1.6 8.0 0.03 0.05 0.05 98 1013.2
20260831150220 20 181 0.0 9.7 0.05 0.05 0.05 98 1013.3
20260831145703 20 151 1.6 9.7 0.05 0.00 0.05 98 1013.4
20260831145203 20 214 3.2 6.4 0.03 0.00 0.03 98 1013.5
20260831144700 20 216 3.2 8.0 0.03 0.00 0.03 98 1013.4
20260831144424 20 190 3.2 8.0 0.03 0.00 0.03 98 1013.4
20260831143700 20 141 4.8 8.0 0.03 0.00 0.03 98 1013.2
20260831143158 20 182 3.2 6.4 0.03 0.00 0.03 98 1013.3
20260831142657 20 176 3.2 9.7 0.03 0.00 0.03 98 1013.4
20260831142150 20 220 4.8 9.7 0.03 0.00 0.03 98 1013.4
20260831141653 20 157 3.2 6.4 0.03 0.00 0.03 98 1013.5
20260831141146 20 236 3.2 9.7 0.03 0.00 0.03 98 1013.5
20260831140645 20 223 0.0 9.7 0.03 0.00 0.03 98 1013.5
20260831140412 20 166 3.2 8.0 0.00 0.00 0.00 98 1013.5
20260831135646 20 203 3.2 8.0 0.00 0.00 0.00 98 1013.6
20260831135146 20 209 1.6 4.8 0.00 0.00 0.00 98 1013.7
20260831134644 20 244 3.2 4.8 0.00 0.00 0.00 98 1013.7
20260831134144 20 247 3.2 4.8 0.00 0.00 0.00 98 1013.7
20260831133643 20 224 1.6 6.4 0.00 0.00 0.00 98 1013.6
20260831133142 20 220 1.6 6.4 0.00 0.00 0.00 98 1013.3
20260831132656 20 188 1.6 6.4 0.00 0.00 0.00 98 1013.2
20260831132254 20 185 0.0 6.4 0.00 0.03 0.00 98 1013.1
20260831131642 20 206 3.2 6.4 0.00 0.03 0.00 98 1013.1
20260831131140 19 189 0.0 6.4 0.00 0.03 0.00 98 1013.0
20260831130640 19 206 1.6 6.4 0.00 0.03 0.00 98 1013.1
20260831130141 19 193 1.6 8.0 0.00 0.03 0.00 98 1013.0
20260831125909 19 204 3.2 9.7 0.00 0.03 0.00 98 1013.0
20260831125141 19 202 3.2 9.7 0.00 0.03 0.00 98 1012.9
20260831124909 19 199 3.2 8.0 0.00 0.03 0.00 98 1012.9
20260831124136 19 183 1.6 6.4 0.00 0.03 0.00 98 1012.9
20260831123659 19 202 3.2 9.7 0.00 0.03 0.00 98 1012.8
20260831123136 19 182 3.2 9.7 0.00 0.03 0.00 98 1012.7
20260831122925 19 173 3.2 8.0 0.00 0.05 0.00 98 1012.6
20260831122136 19 202 4.8 11.3 0.00 0.05 0.00 98 1012.6
20260831121637 19 126 3.2 11.3 0.00 0.05 0.00 98 1012.4
20260831121134 19 117 4.8 9.7 0.00 0.05 0.00 98 1012.2
20260831120634 19 123 4.8 9.7 0.00 0.05 0.00 98 1012.3
20260831120137 19 123 3.2 9.7 0.00 0.05 0.00 98 1012.4
20260831115626 18 138 1.6 8.0 0.00 0.05 0.00 98 1012.5
20260831115126 18 189 4.8 8.0 0.00 0.05 0.00 98 1012.7
20260831114915 18 159 1.6 6.4 0.00 0.05 0.00 98 1012.5
20260831114359 18 140 1.6 8.0 0.00 0.05 0.00 98 1012.5
20260831113626 18 158 3.2 8.0 0.00 0.05 0.00 98 1012.5
20260831113126 18 138 3.2 8.0 0.00 0.05 0.00 98 1012.7
20260831112625 18 121 3.2 9.7 0.00 0.05 0.00 98 1012.6
20260831112125 18 120 1.6 9.7 0.00 0.05 0.00 98 1012.6
20260831111625 18 118 1.6 6.4 0.00 0.08 0.00 98 1012.8
20260831111125 18 130 1.6 4.8 0.00 0.08 0.00 98 1013.1
20260831110621 18 164 0.0 3.2 0.00 0.10 0.00 98 1013.2
20260831110124 18 140 0.0 4.8 0.00 0.10 0.00 98 1013.0
20260831105529 18 151 0.0 4.8 0.00 0.10 0.00 98 1013.1
20260831105029 18 130 0.0 4.8 0.00 0.10 0.00 98 1013.1
20260831104527 18 116 0.0 4.8 0.00 0.10 0.00 98 1013.2
20260831104027 18 131 0.0 3.2 0.00 0.10 0.00 98 1013.4
20260831103527 18 142 0.0 3.2 0.00 0.10 0.00 98 1013.4
20260831103026 18 117 1.6 4.8 0.00 0.10 0.00 98 1013.4
20260831102520 18 106 1.6 4.8 0.00 0.10 0.00 98 1013.3
20260831102020 18 103 0.0 3.2 0.00 0.10 0.00 98 1013.5
20260831101521 18 100 0.0 3.2 0.00 0.10 0.00 98 1013.6
20260831101242 18 135 1.6 6.4 0.00 0.10 0.00 98 1013.5
20260831100018 18 166 1.6 6.4 0.00 0.10 0.00 98 1013.5
20260831095512 18 200 1.6 6.4 0.00 0.10 0.00 98 1013.7
20260831095011 18 147 3.2 6.4 0.00 0.10 0.00 98 1013.5
20260831094511 18 97 3.2 6.4 0.00 0.10 0.00 98 1013.6
20260831094012 18 123 0.0 6.4 0.00 0.10 0.00 98 1013.8
20260831093511 18 168 1.6 4.8 0.00 0.10 0.00 98 1013.8
20260831093011 18 157 1.6 6.4 0.00 0.10 0.00 98 1013.8
20260831092735 18 157 3.2 6.4 0.00 0.10 0.00 98 1014.0
20260831092011 18 172 1.6 4.8 0.00 0.10 0.00 98 1014.0
20260831091510 18 152 1.6 4.8 0.00 0.10 0.00 98 1013.9
20260831091012 18 162 1.6 4.8 0.00 0.10 0.00 98 1014.0
20260831090511 18 169 0.0 4.8 0.00 0.10 0.00 98 1014.1
20260831090010 18 189 1.6 3.2 0.00 0.10 0.00 98 1014.1
20260831085510 18 100 0.0 3.2 0.00 0.10 0.00 98 1014.3
20260831085010 18 97 0.0 3.2 0.00 0.10 0.00 98 1014.1
20260831084510 18 82 3.2 3.2 0.00 0.10 0.00 98 1014.0
20260831084008 18 99 0.0 1.6 0.00 0.10 0.00 98 1014.0
20260831083506 18 103 0.0 3.2 0.00 0.10 0.00 98 1013.9
20260831083006 18 100 1.6 4.8 0.00 0.10 0.00 98 1013.8
20260831082505 18 111 1.6 4.8 0.00 0.10 0.00 98 1013.8
20260831082008 18 114 1.6 4.8 0.00 0.10 0.00 98 1013.9
20260831081504 18 113 1.6 4.8 0.00 0.10 0.00 98 1013.8
20260831081004 18 123 1.6 4.8 0.00 0.10 0.00 98 1013.8
20260831080500 18 89 3.2 4.8 0.00 0.10 0.00 98 1013.8
20260831075959 18 145 1.6 4.8 0.00 0.10 0.00 98 1013.7
20260831075459 18 127 1.6 4.8 0.00 0.10 0.00 98 1013.7
20260831074958 18 144 1.6 6.4 0.00 0.10 0.00 98 1013.5
20260831074457 18 86 3.2 6.4 0.00 0.10 0.00 98 1013.3
20260831073955 18 102 1.6 4.8 0.00 0.10 0.00 98 1013.3
20260831073723 18 95 3.2 4.8 0.00 0.10 0.00 98 1013.4
20260831072951 18 86 3.2 4.8 0.00 0.10 0.00 98 1013.4
20260831072451 18 100 3.2 4.8 0.00 0.10 0.00 98 1013.4
20260831071951 18 135 0.0 8.0 0.00 0.10 0.00 98 1013.4
20260831071717 18 114 3.2 8.0 0.00 0.13 0.00 98 1013.4
20260831070950 18 76 4.8 8.0 0.00 0.13 0.00 98 1013.5
20260831070452 18 86 4.8 8.0 0.00 0.15 0.00 98 1013.6
20260831065953 18 99 3.2 11.3 0.00 0.15 0.00 98 1013.7
20260831065449 18 86 6.4 11.3 0.00 0.15 0.00 97 1013.7
20260831064951 18 85 6.4 11.3 0.00 0.15 0.00 98 1013.8
20260831064455 18 97 3.2 8.0 0.00 0.15 0.00 98 1013.9
20260831063948 18 87 4.8 8.0 0.00 0.18 0.00 98 1013.9
20260831063446 18 95 4.8 6.4 0.00 0.18 0.00 98 1014.0
20260831062946 18 103 3.2 6.4 0.00 0.18 0.00 98 1014.1
20260831062448 18 72 3.2 8.0 0.00 0.20 0.00 98 1014.1
20260831061945 18 87 4.8 8.0 0.00 0.20 0.00 97 1014.0
20260831061445 18 102 3.2 4.8 0.00 0.23 0.00 97 1014.0
20260831060945 19 97 3.2 4.8 0.00 0.25 0.00 98 1014.1
20260831060444 19 121 1.6 4.8 0.00 0.25 0.00 98 1014.1
20260831060210 19 93 0.0 6.4 0.00 0.28 0.00 98 1014.1
20260831055443 19 102 3.2 6.4 0.00 0.28 0.00 98 1014.1
20260831054943 19 111 1.6 6.4 0.00 0.28 0.00 98 1014.1
20260831054440 19 114 1.6 6.4 0.00 0.28 0.00 98 1014.1
20260831053939 19 118 3.2 6.4 0.00 0.28 0.00 97 1014.0
20260831053439 19 89 1.6 4.8 0.00 0.28 0.00 97 1014.0
20260831052940 19 131 0.0 4.8 0.00 0.28 0.00 98 1014.1
20260831052658 19 134 0.0 4.8 0.00 0.28 0.00 97 1014.1
20260831051935 19 110 1.6 6.4 0.00 0.28 0.00 97 1014.1
20260831051435 18 90 3.2 6.4 0.00 0.28 0.00 97 1014.2
20260831050935 18 114 3.2 6.4 0.00 0.28 0.00 97 1014.2
20260831050435 18 141 1.6 4.8 0.00 0.28 0.00 97 1014.2
20260831045934 18 140 0.0 4.8 0.00 0.30 0.00 97 1014.4
20260831045433 18 137 1.6 4.8 0.00 0.30 0.00 97 1014.2
20260831045205 18 123 0.0 3.2 0.00 0.30 0.00 97 1014.3
20260831044656 18 157 0.0 4.8 0.00 0.30 0.00 97 1014.5
20260831043936 18 155 1.6 4.8 0.00 0.30 0.00 97 1014.5
20260831043659 18 90 1.6 6.4 0.00 0.30 0.00 97 1014.3
20260831042933 18 106 1.6 6.4 0.00 0.30 0.00 97 1014.4
20260831042433 18 90 3.2 6.4 0.00 0.30 0.00 97 1014.3
20260831041932 18 116 1.6 6.4 0.00 0.30 0.00 97 1014.2
20260831041658 18 86 3.2 6.4 0.00 0.30 0.00 97 1014.1
20260831040932 18 87 1.6 4.8 0.00 0.33 0.00 97 1014.2
20260831040434 19 106 0.0 3.2 0.00 0.33 0.00 97 1014.2
20260831040200 19 106 1.6 3.2 0.00 0.33 0.33 97 1014.3
20260831035702 18 114 0.0 3.2 0.00 0.33 0.33 97 1014.4
20260831034935 18 123 0.0 4.8 0.00 0.33 0.33 97 1014.4
20260831034435 19 99 1.6 4.8 0.00 0.33 0.33 97 1014.5
20260831033934 19 78 1.6 4.8 0.00 0.33 0.33 97 1014.5
20260831033437 19 85 1.6 4.8 0.00 0.33 0.33 97 1014.5
20260831032435 19 117 1.6 8.0 0.00 0.33 0.33 97 1014.5
20260831032201 19 134 0.0 8.0 0.00 0.33 0.33 97 1014.4
20260831031435 19 185 0.0 4.8 0.00 0.33 0.33 97 1014.3
20260831030933 18 162 1.6 6.4 0.00 0.33 0.33 97 1014.4
20260831030656 18 128 1.6 6.4 0.00 0.33 0.33 97 1014.4
20260831025929 18 140 3.2 6.4 0.00 0.33 0.33 97 1014.3
20260831025429 18 176 1.6 4.8 0.00 0.33 0.33 97 1014.3
20260831024929 18 171 1.6 4.8 0.00 0.33 0.33 97 1014.4
20260831024426 18 130 1.6 9.7 0.00 0.33 0.33 97 1014.5
20260831023926 18 95 4.8 9.7 0.00 0.33 0.33 97 1014.4
20260831023427 18 82 1.6 4.8 0.00 0.33 0.33 97 1014.3
20260831022926 18 71 1.6 3.2 0.00 0.33 0.33 97 1014.4
20260831022427 18 85 1.6 3.2 0.00 0.33 0.33 97 1014.4
20260831021927 18 123 0.0 4.8 0.00 0.33 0.33 97 1014.4
20260831021651 18 165 1.6 8.0 0.00 0.33 0.33 97 1014.4
20260831021158 18 130 3.2 8.0 0.00 0.33 0.33 97 1014.3
20260831020422 18 68 1.6 8.0 0.00 0.33 0.33 97 1014.4
20260831015921 18 86 4.8 9.7 0.00 0.33 0.33 97 1014.4
20260831015420 18 87 3.2 9.7 0.00 0.33 0.33 97 1014.4
20260831015148 18 111 4.8 8.0 0.00 0.33 0.33 96 1014.4
20260831014418 18 65 3.2 4.8 0.00 0.33 0.33 97 1014.4
20260831013921 18 80 0.0 4.8 0.00 0.33 0.33 97 1014.3
20260831013416 18 93 0.0 6.4 0.00 0.33 0.33 96 1014.2
20260831012916 18 102 1.6 6.4 0.00 0.33 0.33 96 1014.0
20260831012414 18 103 3.2 8.0 0.00 0.33 0.33 96 1014.0
20260831011913 18 128 1.6 8.0 0.00 0.33 0.33 96 1014.0
20260831011412 18 120 3.2 6.4 0.00 0.33 0.33 96 1014.2
20260831011137 18 92 3.2 4.8 0.00 0.33 0.33 96 1014.0
20260831010639 18 102 1.6 3.2 0.00 0.33 0.33 96 1014.1
20260831005912 18 140 0.0 1.6 0.00 0.33 0.33 96 1014.2
20260831004911 18 87 0.0 9.7 0.00 0.33 0.33 96 1014.0
20260831004410 18 117 3.2 9.7 0.00 0.33 0.33 96 1013.7
20260831003410 18 96 3.2 8.0 0.00 0.33 0.33 96 1013.9
20260831002909 18 151 3.2 8.0 0.00 0.33 0.33 96 1013.8
20260831002409 18 89 4.8 8.0 0.00 0.33 0.33 96 1013.7
20260831002140 18 93 4.8 8.0 0.00 0.33 0.33 96 1013.7
20260831001406 18 69 3.2 8.0 0.00 0.33 0.33 96 1013.6
20260831000906 18 117 4.8 9.7 0.00 0.33 0.33 95 1013.6
20260831000405 19 128 4.8 9.7 0.00 0.33 0.33 95 1013.6
20260830235905 19 73 4.8 9.7 0.00 0.33 0.33 95 1013.6
20260830235404 19 102 4.8 9.7 0.00 0.33 0.33 95 1013.5
20260830234905 19 142 3.2 11.3 0.00 0.33 0.33 95 1013.6
20260830234629 19 97 6.4 11.3 0.00 0.33 0.33 95 1013.6
20260830233905 19 138 3.2 9.7 0.00 0.33 0.33 95 1013.5
20260830233405 19 116 1.6 9.7 0.00 0.33 0.33 94 1013.7
20260830232909 19 100 4.8 9.7 0.00 0.33 0.33 94 1013.6
20260830232405 19 89 3.2 8.0 0.00 0.33 0.33 94 1013.8
20260830231904 19 80 3.2 6.4 0.00 0.33 0.33 94 1014.0